Location: La Fredeussais
(48.1780°N, 1.3980°W)
Time: 02:43:36
(UTC+00:00)

CZ-4B DEB - Pass Details

Date: 09 May 2021
Orbit: 409 x 416 km, 97.3° (Epoch: 13 June)

Event Time Altitude Azimuth Distance (km) Brightness Sun altitude
Exits shadow 22:04:09 63° 209° (SSW) 477 4.3 -19.1°
Maximum altitude 22:04:30 72° 258° (WSW) 451 4.3 -19.2°
Drops below altitude 10° 22:07:45 10° 343° (NNW) 1,523 8.2 -19.4°
Sets 22:09:46 0° 346° (NNW) 2,393 9.5 -19.6°
